SL-12 R/B(2), 36403

Orbit data source: Space-Track

SL-12 R/B(2), 36403 is space debris in MEO originally from a launch on Mon, 01 Mar 2010 UTC launched from the Tyuratam Missile And Space Complex (TTMTR). Debris objects in space refer to the collection of defunct objects orbiting the Earth. Examples of debris include non-operational satellites, rocket bodies, and fragments generated from explosions, collisions, or faulty payload assembly.

Loading next visibility...
Identifier
36403, 2010-007D
Orbit
MEO
Country
Flag of CISCIS
Related business
Manufacturer
RKKE
Mission
Spacecraft
Bus & Motor
BLOK DM2, 11D58M
Mass
2,440 kg wet, 2,440 kg dry
Launch date (UTC)
2010-03-01 (17 years ago)
Launch vehicle
Unknown
Launch site
Tyuratam Missile And Space Complex (TTMTR)
Object type
Payload
Rocket body
Debris
Shape & HBR
Cyl, 4.0 m
Radar Cross Section
26.008 m², Large (>1 m²)

Expand to show TLE details & history
Last TLE update: 2 weeks ago

TLE from 2 weeks ago
0 SL-12 R/B(2)
1 36403U 10007D   26242.44784175 -.00000022  00000-0  00000+0 0  9994
2 36403  65.3695 311.5510 0020355 188.7757 171.9256  2.13314885128508
Epoch: 2026-08-30T10:44Z
TLE epoch observation values (Epoch: 2026-08-30T10:44:53.527Z)
Latitude
0.59506°
Longitude
171.96948°
Altitude
19,164.86 km
Speed
3.946 km/s
True Right ascension
20h 47m 20s
True Declination
0° 35' 39"
Sunlit
Object was in daylight at epoch
Visualization orbit readout
Latitude
Unknown
Longitude
Unknown
Altitude
Unknown
Speed
Unknown
Apparent Right ascension
Unknown
Apparent Declination
Unknown
Sunlit
N/A
Visualization observer readout
Local Sidereal Time
21:01:26
Azimuth
Unknown
Elevation
Unknown
Doppler factor
Unknown
Orbital elements
Apogee altitude
19,164.402 km
Perigee altitude
19,060.629 km
Semi-major axis
25,490.652 km
Eccentricity
0.00204
Inclination
65.3695°
RAAN
311.551°
Arg. of periapsis
188.7757°
True anomaly
171.95828°
Mean anomaly
171.9256°
Eccentric anomaly
171.94195°
Mean motion
0.5333 °/min
Orbital period
675.04 mins
BSTAR
0
Loading maneuver chart data...
Computing Atmospheric mass density...
Loading historical data...
Loading historical data...
Loading historical data...
Loading historical data...
Loading historical data...
Loading historical data...
Loading historical data...

Documentation

Showing up to 5 results
|